📊 Raw Sensor Data

Showing records 42476 to 42500 of 85,000 total

ID Distance (ft) Battery V Battery A Int Temp (°F) Int Humid (%) Ext Temp (°F) Solar V RSSI SNR Time Stamp
42537 15.4 4.01 0 79 42 75 5.10 -74 8 06/04/2025 10:15 AM
42536 15.4 4.01 0 77 42 77 5.10 -74 8 06/04/2025 10:00 AM
42535 15.5 4.01 0 76 42 75 5.10 -72 7 06/04/2025 09:45 AM
42534 15.5 4.01 0 74 42 75 5.10 -72 8 06/04/2025 09:30 AM
42533 15.5 4.01 0 73 43 73 5.10 -74 8 06/04/2025 09:15 AM
42532 15.5 4.01 0 72 43 75 5.10 -74 7 06/04/2025 09:00 AM
42531 15.5 4.01 0 70 43 74 5.10 -74 8 06/04/2025 08:45 AM
42530 15.5 4.01 0 69 42 74 5.10 -74 8 06/04/2025 08:30 AM
42529 15.5 4.07 0 67 42 73 5.10 -74 8 06/04/2025 08:15 AM
42528 15.4 4.05 0 65 42 70 5.10 -74 7 06/04/2025 08:00 AM
42527 15.4 4.01 0 64 42 63 5.10 -73 8 06/04/2025 07:45 AM
42526 15.4 4.07 47 62 42 61 4.50 -73 8 06/04/2025 07:30 AM
42525 15.3 4.02 9 61 41 62 4.60 -74 7 06/04/2025 07:15 AM
42524 15.3 4.04 5 60 41 62 4.50 -74 8 06/04/2025 07:00 AM
42523 15.2 4.02 9 58 41 60 4.50 -74 8 06/04/2025 06:45 AM
42522 15.2 4.01 0 55 42 59 4.50 -73 8 06/04/2025 06:30 AM
42521 15.1 3.94 0 54 42 56 4.50 -74 8 06/04/2025 06:15 AM
42520 15.1 3.93 -7 54 43 55 4.50 -73 8 06/04/2025 06:00 AM
42519 15.1 3.98 -10 54 43 55 4.10 -74 8 06/04/2025 05:45 AM
42518 15.1 3.93 -5 54 43 55 0.80 -74 8 06/04/2025 05:30 AM
42517 15.1 3.93 -5 54 43 55 0.00 -74 9 06/04/2025 05:15 AM
42516 15.1 3.99 -5 54 43 55 0.00 -74 8 06/04/2025 05:00 AM
42515 15.1 3.94 -5 54 43 56 0.00 -74 8 06/04/2025 04:45 AM
42514 15.1 3.94 -5 54 43 54 0.00 -75 9 06/04/2025 04:30 AM
42513 15.1 3.99 -5 55 43 55 0.00 -74 8 06/04/2025 04:15 AM